Location: Briis
(48.6240°N, 2.1211°E)
Time: 16:09:24
(UTC+00:00)

USA 267 - Pass Details

Date: 25 September 2020
Orbit: 1101 x 1106 km, 123.0° (Epoch: 22 September)

Event Time Altitude Azimuth Distance (km) Brightness Sun altitude
Rises 05:07:50 0° 61° (ENE) 3,924 7.6 -6.6°
Reaches altitude 10° 05:10:22 10° 56° (ENE) 2,965 6.7 -6.2°
Maximum altitude 05:16:40 52° 343° (NNW) 1,345 3.7 -5.1°
Drops below altitude 10° 05:22:57 10° 269° (W) 2,962 4.8 -4.1°
Enters shadow 05:24:18 - 267° (W) 3,468 5.2 -3.9°
